Regional Weather Roundup
Issued by NWS Kansas City/Pleasant Hill, MO

Home | Current Version | Previous Version | Graphics & Text | Print | Product List | Glossary Off
Versions: 1 2 3 4 5 6 7 8 9 10 11 12 13 14 15 16 17 18 19 20 21 22 23 24 25 26 27 28

000
ASUS43 KEAX 220510
RWREAX

WEATHER ROUNDUP FOR EASTERN KANSAS AND NORTHWEST MISSOURI
NATIONAL WEATHER SERVICE KANSAS CITY/PLEASANT HILL MO
1200 AM CDT SUN APR 22 2018

KSZ040-057-103>105-MOZ028-029-037-043-220600-
...KANSAS CITY METROPOLITAN AREA...

CITY           SKY/WX    TMP DP  RH WIND       PRES   REMARKS
K.C. INTL      CLOUDY    54  29  38 NE12      30.15F
K.C. DOWNTOWN  CLOUDY    58  28  32 NE8       30.13F
LEES SUMMIT    CLOUDY    56  30  37 E12       30.13F
OLATHE - IXD   CLOUDY    57  30  35 E9        30.13F
OLATHE - OJC   CLOUDY    55  30  38 E12       30.11F
LAWRENCE       CLOUDY    49  44  83 NW6       30.14F

$$

MOZ001>008-011>017-020>025-030>033-038>040-044>046-053-054-220600-
...NORTHERN AND CENTRAL MISSOURI...

CITY           SKY/WX    TMP DP  RH WIND       PRES   REMARKS
ST. JOSEPH     CLOUDY    55  31  39 NE9       30.18F
MOSBY          CLOUDY    55  27  33 NE3       30.15F
WARRENSBURG    CLOUDY    55  32  41 NE8       30.12F
WHITEMAN AFB   CLOUDY    55  33  42 E6        30.09F
CLINTON        CLOUDY    55  34  44 NE9       30.10F
SEDALIA        CLOUDY    58  35  42 E7        30.14F
WARSAW         NOT AVBL
CHILLICOTHE      N/A     55  30  38 NE7       30.19F
KIRKSVILLE     CLOUDY    52  31  44 E10       30.22S

$$

MOZ041-047>049-056>058-063>065-088>090-097-220600-
...EASTERN AND SOUTHERN MISSOURI...

CITY           SKY/WX    TMP DP  RH WIND       PRES   REMARKS
ST. LOUIS INTL CLOUDY    58  33  39 E10       30.19F
SPIRIT OF STL  CLOUDY    57  35  43 E7        30.17F
COLUMBIA       CLOUDY    59  32  36 E12       30.13F
JEFFERSON CITY CLOUDY    60  32  34 E8        30.13F
ROLLA          CLOUDY    58  34  40 E10       30.12F
OSAGE BEACH    CLOUDY    60  37  42 E9        30.11F
SPRINGFIELD    LGT RAIN  55  48  77 NE6       30.04F
BRANSON        LGT RAIN  55  46  71 CALM      30.05S
JOPLIN         CLOUDY    52  52 100 N6        30.05F
WEST PLAINS    CLOUDY    61  34  36 E6        30.09S

$$

IAZ060-094-KSZ022-034>040-054-083-096-NEZ052-066-093-220600-
...KANSAS...SOUTHEAST NEBRASKA AND IOWA...

CITY           SKY/WX    TMP DP  RH WIND       PRES   REMARKS
TOPEKA         CLOUDY    48  45  89 CALM      30.15S
MANHATTAN      CLOUDY    48  43  82 CALM      30.17F
EMPORIA        LGT RAIN  45  42  89 N9        30.13F FOG
CHANUTE        LGT RAIN  47  46  97 N8        30.09F
WICHITA        LGT RAIN  45  44  97 N15G21    30.15F
OMAHA          CLOUDY    52  27  38 E9        30.24F
LINCOLN        CLOUDY    47  35  63 NW5       30.25S
FALLS CITY     CLOUDY    50  32  50 NE7       30.19F
LAMONI         CLOUDY    50  29  44 NE8       30.23R
DES MOINES     CLOUDY    52  30  43 E13G20    30.28S

$$





USA.gov is the U.S. government's official web portal to all federal, state and local government web resources and services.